Wind_Speed
2 1 1 4 6 7 7 7 7 4 5 4 3 3 4 4 5 6 6 6 1 4 1 2 6 6 8 9 9 15 15 9 9 13 17 20 23 26 27 28 30 32 31 30 31 31 30 29 29 28 27 29 29 28 27 27 26 24 20 19 18 16 15 15 16 15 14 14 13 12 11 10 9 8 6 4 4 3 2 1 1 2 4 4 3 3
3 2 6 9 10 8 5 4 4 2 3 3 3 3 4 4 5 6 4 6 3 5 3 1 8 3 4 7 9 16 14 9 14 17 18 22 24 26 27 26 28 30 30 31 32 32 32 31 31 31 30 31 31 30 27 25 25 24 21 20 19 17 18 17 16 15 14 13 12 11 11 10 9 6 4 3 2 1 1 3 3 1 3 5 5 5
2 3 10 9 6 3 3 5 4 2 2 2 1 2 2 3 4 6 5 7 6 5 1 1 6 1 4 2 5 12 14 15 24 26 25 27 26 25 27 27 29 29 30 33 34 34 34 34 33 33 32 29 29 30 27 24 25 24 22 21 19 18 18 18 17 15 14 14 12 10 9 9 7 6 5 3 2 1 2 4 2 1 2 3 4 3
1 6 9 4 5 4 3 2 4 1 1 2 2 2 2 4 1 3 6 7 6 3 2 4 5 3 6 4 3 6 5 9 19 23 24 28 30 30 31 32 33 33 34 36 35 36 36 36 35 34 32 29 27 28 27 25 25 24 22 22 20 18 18 18 17 16 15 14 11 9 8 7 6 6 6 4 3 3 3 3 2 3 2 1 2 2
6 10 5 3 5 6 4 3 4 1 3 3 3 4 2 4 2 4 5 5 5 5 4 6 6 5 5 2 3 4 3 2 11 15 17 22 25 27 29 30 34 36 37 39 38 38 38 38 37 34 32 29 28 29 28 27 26 24 23 22 20 18 18 19 18 17 16 14 12 11 10 9 8 7 7 6 5 4 4 4 5 4 3 2 2 2
8 9 3 1 2 5 4 5 5 6 3 4 4 6 7 5 4 3 3 4 4 5 4 5 5 3 5 2 4 2 0 2 6 9 12 15 17 20 24 27 31 33 35 39 39 39 39 38 37 34 32 30 30 30 29 27 26 24 22 22 21 19 19 19 18 17 15 14 13 11 9 8 8 7 6 6 5 4 4 6 6 4 4 3 2 2
5 4 1 3 3 3 4 4 4 7 4 2 5 5 6 6 3 2 5 5 3 1 3 4 5 3 5 2 4 3 5 4 4 6 7 12 16 17 21 25 29 31 34 37 37 37 38 37 36 35 33 31 31 31 30 28 26 25 25 24 23 21 20 20 19 18 16 15 13 9 6 5 4 5 5 5 5 5 5 5 6 5 4 3 3 3
3 4 3 4 3 4 4 4 5 8 7 3 5 5 7 5 4 3 5 4 1 2 3 6 4 2 3 3 5 2 5 5 5 7 6 12 18 16 18 23 28 31 33 36 37 36 37 36 36 36 34 32 32 32 31 30 29 28 26 25 23 22 21 21 20 19 17 16 12 9 8 5 4 5 5 6 6 5 4 4 5 5 4 4 4 5
2 2 2 3 3 3 4 5 7 9 4 6 6 6 6 5 6 5 6 3 2 2 3 7 4 2 3 5 4 2 4 4 8 9 8 13 19 19 18 22 27 29 31 35 37 37 37 36 35 35 33 31 32 32 31 31 30 28 25 25 23 22 22 22 21 20 18 15 12 9 9 8 7 7 8 8 7 5 4 4 4 4 4 4 4 4
3 4 5 5 4 5 6 5 8 10 3 4 5 5 4 4 4 4 5 4 4 4 2 7 3 2 3 5 4 3 3 1 7 8 8 12 18 20 20 23 27 28 30 33 35 35 35 35 35 33 31 31 31 32 31 31 30 26 24 24 23 22 22 22 22 21 18 16 13 12 11 11 10 11 11 10 8 6 5 4 4 4 4 4 4 3
6 4 3 4 4 6 5 3 5 7 4 3 5 5 5 5 4 4 3 4 5 1 5 7 2 3 1 5 2 1 1 3 6 6 6 10 14 18 22 25 27 28 30 32 32 32 32 33 33 32 31 31 30 31 33 33 31 27 24 22 21 21 22 23 23 22 19 17 16 14 12 12 11 12 13 12 9 7 6 5 5 5 6 5 5 4
7 3 2 3 4 3 4 2 1 2 3 5 5 4 3 2 4 4 4 4 4 2 6 6 2 4 2 4 4 4 5 5 6 7 7 9 15 20 22 25 26 27 28 28 29 31 31 32 33 32 32 31 31 32 31 28 25 23 21 17 18 21 22 23 23 22 20 18 17 15 14 13 12 12 14 12 9 7 6 6 7 7 7 7 6 6
4 3 3 5 3 3 5 2 1 5 6 5 5 5 3 1 3 1 3 2 1 3 4 3 1 2 2 5 5 6 7 6 5 7 6 7 15 23 24 24 24 25 27 27 28 30 31 31 31 31 31 31 31 28 22 17 15 16 16 15 17 21 23 23 22 20 18 17 17 16 15 15 13 13 14 12 9 8 7 7 7 8 8 8 7 7
2 5 5 4 3 2 6 4 2 2 1 4 4 4 4 2 2 1 3 1 1 2 3 4 2 1 2 3 3 7 6 5 6 4 7 5 8 15 18 19 20 21 23 24 26 28 30 30 29 28 28 30 29 25 19 16 15 16 17 18 20 22 22 22 21 19 18 17 17 16 16 16 14 14 15 12 10 10 8 8 7 8 8 8 8 8
2 3 3 2 2 1 3 4 6 5 3 3 4 5 4 4 4 3 3 2 2 2 2 4 0 2 2 2 4 7 4 9 16 15 16 15 14 16 16 15 16 15 16 18 20 23 26 26 26 26 25 27 27 25 23 21 19 18 17 18 23 25 25 24 24 24 21 20 18 17 17 16 15 15 16 13 12 11 10 9 9 9 9 9 8 8
4 4 6 4 3 3 3 3 5 6 2 2 2 5 3 5 5 2 2 5 3 1 1 2 1 2 2 3 5 5 4 11 17 18 20 18 17 21 20 18 16 14 13 14 14 16 20 22 23 25 24 25 25 24 24 24 22 20 20 19 23 27 27 27 29 28 24 21 20 18 18 17 16 17 17 15 14 13 11 11 11 10 10 10 9 9
3 4 6 5 3 2 4 4 3 3 2 1 2 3 3 4 7 5 1 1 4 3 1 1 1 2 2 2 6 6 5 8 10 12 17 18 17 20 22 20 17 14 12 12 11 8 9 14 18 20 20 20 22 22 23 24 23 22 20 18 21 28 28 27 30 30 26 23 21 20 20 19 18 18 16 14 14 15 13 13 13 12 12 11 10 10
4 2 6 1 1 4 2 3 4 4 4 4 2 5 2 2 5 5 2 3 4 2 3 2 1 1 1 1 4 5 4 4 7 6 10 15 15 15 19 20 16 13 12 11 10 6 1 3 7 10 12 15 18 20 21 21 21 20 16 13 17 25 28 28 28 28 26 25 25 24 22 21 20 18 16 13 12 14 15 14 14 14 13 13 11 10
4 1 6 2 3 5 5 5 4 4 3 4 4 3 4 3 1 1 3 2 2 2 2 3 1 2 2 2 3 2 3 2 4 4 5 9 9 11 17 21 19 18 15 11 11 9 6 6 4 3 4 8 13 16 18 18 18 17 13 10 12 19 24 26 25 25 26 27 28 28 25 23 21 19 17 14 12 13 14 14 14 15 14 13 11 10
3 3 4 5 2 3 5 5 1 4 5 3 2 3 3 3 4 2 2 3 4 3 2 1 2 1 4 4 5 6 6 5 5 4 4 6 7 9 14 19 19 17 15 12 13 13 10 6 4 3 4 3 5 8 11 12 13 12 10 9 11 15 20 22 23 25 28 28 28 28 26 25 23 20 18 16 14 13 12 12 13 14 13 12 11 9
3 4 3 5 4 3 2 0 3 3 2 2 3 3 3 2 3 2 1 1 4 5 3 2 0 4 5 3 5 7 7 6 7 6 5 7 11 13 14 16 16 16 15 14 13 12 9 6 5 4 5 5 6 7 7 7 7 8 8 8 10 13 17 20 22 25 28 28 28 28 28 26 24 21 19 16 15 14 12 13 13 13 12 11 11 10
2 3 3 1 4 2 2 3 1 2 3 4 3 0 1 3 4 3 1 1 2 4 4 5 3 5 6 2 4 6 6 7 10 11 8 10 15 16 15 15 16 16 16 15 13 11 9 6 5 5 6 7 7 8 8 7 6 6 6 7 8 10 14 18 21 25 28 27 27 28 29 26 23 21 19 18 17 14 14 14 14 14 14 12 12 12
3 4 3 1 1 1 4 4 3 2 3 6 4 1 2 3 4 5 3 3 1 3 2 4 2 5 5 1 1 4 4 4 10 15 13 13 16 16 17 16 16 16 15 15 14 11 9 7 6 6 7 7 8 9 9 9 7 6 6 6 8 9 12 15 18 22 26 26 26 28 29 27 24 21 21 21 20 18 17 17 16 18 19 17 15 15
2 4 3 1 3 3 4 5 5 4 5 6 3 2 3 2 2 5 5 3 3 3 2 4 1 4 5 4 1 5 4 3 7 12 14 14 14 15 18 18 17 17 16 15 14 12 11 9 8 7 7 7 8 9 10 10 8 6 5 5 7 8 9 13 17 20 23 25 26 27 28 27 24 21 22 23 22 21 20 20 20 22 23 22 20 18
1 1 3 3 3 4 5 5 6 5 4 3 3 4 3 3 3 3 1 3 3 4 4 5 2 6 5 4 3 5 7 6 7 11 16 18 18 18 19 19 19 19 18 17 16 14 13 11 9 9 8 7 8 9 10 10 8 6 5 4 5 6 8 12 16 19 22 25 26 26 25 24 23 23 23 23 22 21 19 20 21 22 23 23 21 20
3 2 3 5 4 2 1 2 3 2 3 2 3 6 5 4 5 3 2 4 2 3 4 5 4 5 3 4 4 5 7 7 7 10 15 18 21 22 22 22 22 21 20 19 17 15 13 11 10 10 9 9 9 9 9 9 9 8 7 6 6 8 10 12 14 18 22 24 25 26 25 23 22 23 23 22 22 21 21 22 22 21 23 24 21 20
3 3 2 5 6 6 5 4 4 2 3 1 2 5 5 4 4 5 4 2 3 3 2 2 4 3 1 1 2 3 6 7 9 12 16 19 21 22 22 23 23 20 19 18 16 15 13 12 11 10 10 10 10 9 9 9 9 10 10 9 9 9 10 11 12 16 20 22 23 24 24 24 22 20 20 22 21 21 22 23 23 22 24 25 23 21
5 4 1 5 5 2 4 3 1 3 5 4 3 2 3 3 5 6 3 2 4 5 1 5 2 6 3 1 3 3 2 4 6 9 14 16 17 18 19 21 21 19 19 18 17 17 15 14 13 11 11 11 10 11 10 9 9 10 10 10 10 9 9 8 9 11 14 16 17 18 19 21 20 18 19 21 20 20 21 22 23 23 24 24 23 22
6 1 1 5 6 3 4 4 4 5 4 3 3 3 3 3 6 6 2 1 4 5 4 4 3 4 1 4 5 5 4 2 1 1 5 8 9 12 16 18 19 19 20 19 18 18 17 16 15 13 13 13 13 13 12 11 10 9 9 9 9 9 8 7 6 7 8 10 12 14 16 18 19 20 20 20 19 18 18 18 19 18 17 18 18 18
4 1 1 4 4 4 4 3 5 6 5 4 5 4 4 4 6 6 3 2 5 5 4 6 8 4 2 3 5 6 5 7 9 9 6 4 2 6 11 15 17 19 20 20 19 19 18 17 16 16 15 15 15 14 14 13 12 10 10 9 9 9 9 8 7 7 7 7 8 10 13 14 13 13 12 10 9 8 7 7 8 8 7 8 9 8
3 2 0 4 5 2 4 4 5 6 7 6 6 6 4 6 6 6 4 3 5 5 4 8 9 5 4 4 6 10 13 15 16 15 14 12 7 3 6 8 11 14 16 18 19 19 19 18 17 17 16 15 15 15 14 14 13 13 12 12 10 10 10 9 9 9 9 8 7 7 8 8 8 7 7 7 7 6 5 5 5 5 5 4 3 3
4 3 1 5 4 1 2 3 4 6 8 7 6 7 6 5 5 4 3 3 1 4 5 7 6 1 4 5 8 14 19 20 17 17 18 18 14 9 5 3 6 8 10 12 15 17 18 18 18 17 16 16 15 14 13 13 14 14 14 13 12 11 10 10 9 9 8 8 7 6 6 6 7 6 6 7 7 6 6 5 5 5 4 3 2 2
3 4 2 3 3 2 3 2 2 5 6 3 3 3 3 4 6 5 5 6 4 3 5 4 3 2 3 4 6 11 14 16 16 18 19 19 20 19 15 9 7 8 9 10 11 14 15 16 17 17 17 16 15 14 12 11 12 14 14 13 12 11 11 11 10 10 9 9 8 7 6 5 5 5 5 5 4 5 5 5 4 4 4 5 5 5
3 5 3 2 4 2 5 3 3 3 1 3 5 2 2 4 8 9 6 5 6 5 3 3 2 3 4 4 6 9 11 14 18 21 22 22 23 24 23 19 14 11 11 11 12 15 16 15 15 16 16 16 15 13 12 11 12 12 11 11 11 11 11 12 12 12 12 11 10 9 8 7 6 5 5 5 4 4 4 4 4 4 5 6 7 7
3 4 3 2 4 2 2 4 4 2 3 2 3 3 5 5 10 14 9 6 7 7 5 6 6 5 4 5 8 13 16 19 23 26 25 25 25 24 24 22 18 14 12 11 13 16 17 14 13 13 14 14 14 13 11 10 10 11 10 10 10 11 11 10 11 11 11 10 10 10 9 9 8 8 7 7 6 5 5 5 5 5 6 6 6 7
4 3 3 2 3 2 1 3 2 4 3 1 4 3 4 2 5 10 9 8 7 6 4 5 5 6 7 6 6 9 13 18 24 26 24 22 22 23 22 22 19 16 13 9 7 6 6 7 8 10 12 11 10 11 10 8 6 7 9 11 11 10 10 9 9 10 10 9 8 8 8 8 8 8 8 8 8 7 7 7 7 7 7 7 6 7
6 3 2 2 2 3 3 2 1 1 1 1 3 2 1 2 2 4 5 3 5 5 4 3 4 7 9 8 3 3 5 13 17 19 20 20 18 18 18 18 18 17 15 13 8 3 1 5 6 8 7 6 4 8 9 8 6 5 6 9 10 10 9 9 9 8 7 7 8 8 8 8 8 8 8 9 9 9 9 9 9 8 8 8 8 9
4 3 4 4 2 2 5 3 2 2 3 5 4 4 3 5 5 3 5 2 4 7 6 4 5 7 9 11 6 2 2 7 7 9 15 17 14 13 13 14 14 14 14 13 11 9 6 2 1 3 3 1 0 5 7 6 5 4 4 5 7 10 10 10 10 9 6 6 7 9 9 8 9 9 9 9 9 9 9 9 9 10 11 11 12 12
6 2 3 4 2 3 5 4 3 4 4 5 6 7 9 8 5 2 5 1 3 6 7 8 8 9 9 12 11 5 4 4 1 6 12 14 12 12 10 9 10 10 10 10 9 8 7 6 4 1 2 2 2 3 7 8 8 7 6 5 6 7 9 9 10 10 8 7 8 9 10 9 10 10 9 9 9 9 10 10 11 12 13 14 14 15
7 4 4 4 2 2 4 3 2 3 3 3 5 8 13 9 1 5 2 3 1 4 8 11 11 11 11 12 12 9 5 2 1 6 11 11 10 10 9 9 8 8 8 8 7 6 5 3 3 1 3 1 0 2 4 7 10 10 10 11 12 13 14 12 10 10 11 12 12 12 13 13 13 12 12 12 12 11 12 13 13 13 13 14 15 15
4 3 3 3 3 3 4 3 1 1 1 4 7 11 15 6 5 5 4 6 5 7 9 12 12 11 12 12 10 7 4 2 3 7 10 10 9 8 9 9 8 8 9 8 7 7 7 6 5 5 5 5 5 5 4 5 7 8 9 11 14 16 17 17 14 12 12 14 14 15 15 15 15 15 14 13 13 13 14 14 14 14 15 16 16 16
3 3 3 2 2 3 3 3 1 1 2 8 11 11 12 3 4 1 2 7 10 10 9 10 10 9 10 9 8 6 4 5 7 9 10 11 12 12 12 13 12 11 12 13 12 11 12 11 10 10 10 9 10 10 8 7 8 9 11 12 13 13 14 15 15 15 14 14 14 15 16 16 16 16 15 14 15 16 16 15 15 16 18 20 20 20
2 2 2 2 2 2 3 3 2 2 5 11 9 6 8 3 3 5 8 9 9 9 9 8 7 7 7 6 6 7 8 9 11 12 13 14 15 16 17 17 16 16 16 16 16 16 17 16 15 14 13 13 14 15 14 13 12 12 14 15 15 14 14 15 16 16 16 16 16 17 18 18 18 17 16 17 18 18 18 17 18 19 20 21 21 21
2 1 1 1 2 2 1 1 2 3 4 10 8 4 4 5 7 10 11 8 7 7 7 6 5 5 6 7 8 9 10 12 13 15 16 17 17 19 20 20 20 19 19 20 19 19 19 20 20 19 17 15 15 16 18 18 17 16 16 16 16 16 17 17 17 18 18 19 20 20 20 20 20 19 18 18 19 19 20 20 21 20 19 19 20 19
2 3 5 3 2 3 3 3 5 4 3 11 14 10 8 10 10 9 9 8 7 5 4 4 4 4 6 7 9 10 11 13 14 15 17 18 19 20 21 22 23 23 22 22 22 22 22 22 23 23 22 20 17 15 15 17 18 19 18 17 15 15 15 16 17 18 19 20 21 21 21 21 20 19 19 19 20 20 21 21 21 19 18 19 20 20
2 5 7 5 3 5 7 7 6 6 6 11 13 11 10 10 9 7 7 6 4 3 3 3 4 5 6 7 9 10 11 13 15 16 17 18 20 20 21 22 23 23 24 24 23 23 23 24 24 24 25 24 22 20 18 16 15 15 14 13 12 12 14 15 16 17 18 20 21 21 21 20 20 19 19 19 20 20 20 20 20 20 20 21 23 24
3 4 4 3 3 4 3 2 3 5 8 10 11 10 9 8 6 6 5 4 3 3 4 5 6 6 7 8 9 11 12 14 15 17 18 18 19 20 21 22 23 23 24 24 24 23 23 23 24 24 25 26 25 25 24 21 17 14 12 11 11 13 14 16 17 18 19 19 20 20 20 20 20 20 20 20 20 20 20 21 21 22 23 23 24 25
2 4 4 3 3 2 2 3 2 5 7 9 9 7 6 5 5 5 4 4 5 5 7 8 8 9 10 11 12 14 14 15 16 18 19 20 21 22 22 23 24 24 24 24 24 24 24 23 23 23 24 25 25 25 25 26 23 19 17 16 14 14 15 16 16 17 18 18 18 19 19 20 21 21 22 23 23 23 23 23 23 23 24 23 23 23
1 2 2 3 3 2 1 2 1 3 3 4 5 4 3 3 3 4 4 5 6 6 7 8 9 11 12 13 15 16 17 18 19 20 21 22 23 24 25 25 26 26 26 26 26 25 24 24 25 25 25 24 24 24 25 27 27 25 23 22 20 18 18 18 19 19 19 19 19 20 20 21 22 23 24 25 26 27 27 26 25 25 24 23 23 22
2 1 2 4 4 0 3 2 2 2 2 1 2 3 1 1 3 4 4 5 6 7 8 9 10 11 12 13 15 16 18 20 20 21 22 23 24 25 26 26 27 28 28 28 27 26 25 24 24 25 26 25 24 24 25 27 27 27 25 24 24 24 22 21 20 20 20 20 21 21 22 22 23 24 25 26 27 27 28 28 28 28 27 26 26 25
3 3 3 4 4 4 5 4 3 3 3 2 1 1 2 3 5 6 6 6 7 8 9 11 13 14 15 15 16 17 19 21 22 23 24 25 26 27 27 28 29 31 32 32 32 32 31 28 25 23 24 24 23 22 24 25 25 24 22 21 22 23 23 21 20 20 21 21 22 23 23 24 24 24 25 26 27 27 28 29 29 30 31 30 29 29
Wind_Direction
132 147 255 221 221 223 212 192 201 196 150 181 225 207 240 258 272 275 273 289 343 103 321 190 141 149 175 182 170 160 166 167 152 157 164 170 178 187 193 195 196 198 197 190 185 184 186 188 188 189 191 196 205 213 211 202 198 204 201 187 189 197 202 210 212 211 211 213 215 217 219 217 209 202 201 190 170 157 127 42 339 256 235 234 213 183
83 152 234 224 220 217 193 180 211 210 152 180 210 215 262 253 259 276 278 308 9 93 340 46 123 138 189 186 174 157 162 176 171 174 176 175 182 191 194 192 192 195 193 189 186 185 186 188 189 191 193 195 201 208 212 207 200 202 199 190 193 200 205 211 213 212 215 221 227 230 223 218 217 211 212 218 195 178 12 2 352 286 231 229 217 204
47 238 246 231 211 191 156 150 166 188 139 140 193 170 283 269 281 303 306 323 2 85 353 58 118 247 297 264 209 179 181 190 186 185 181 178 184 193 194 190 188 191 191 191 190 188 188 189 192 194 196 198 201 205 210 208 203 201 196 194 199 206 210 210 211 214 219 223 226 228 218 211 215 209 199 213 240 274 334 328 307 226 218 230 230 208
247 250 239 196 143 163 234 186 144 37 56 163 197 121 285 286 8 311 309 329 348 46 105 103 93 318 322 354 276 236 216 193 189 189 184 183 188 192 194 191 188 189 191 192 191 190 189 191 195 197 199 201 202 205 209 206 202 200 197 198 204 211 213 211 212 217 223 222 215 212 208 210 220 213 199 209 242 269 293 287 223 186 185 206 234 211
241 249 223 127 131 159 226 246 164 198 283 255 214 150 205 274 237 232 282 325 340 6 56 80 54 339 338 7 252 276 343 144 180 187 191 194 196 194 193 193 191 191 191 190 190 190 192 193 196 198 201 204 205 207 207 203 200 199 200 204 209 213 212 210 214 218 219 213 202 198 198 206 216 209 204 216 235 249 255 226 189 178 175 171 196 217
255 262 236 234 227 152 183 236 196 178 219 291 245 190 188 203 223 267 330 23 31 5 359 55 65 304 317 308 220 231 343 155 177 195 198 200 202 194 193 197 195 194 193 192 191 192 193 195 196 198 201 206 208 207 204 200 200 203 208 212 214 213 208 208 212 212 210 206 198 194 195 201 207 203 205 224 239 231 208 193 187 181 169 176 205 219
260 288 102 184 221 136 161 240 220 165 140 303 249 195 158 137 134 11 32 60 82 305 323 49 112 235 317 305 234 223 204 204 206 220 210 201 202 195 196 202 199 198 197 194 194 195 197 197 198 200 204 207 208 205 201 200 203 208 213 216 213 206 202 203 204 203 202 202 200 197 202 205 202 197 195 207 221 209 186 181 182 177 169 182 216 237
252 320 36 124 140 121 153 230 211 148 119 237 234 144 126 129 144 127 77 78 177 214 330 12 93 135 323 274 283 289 195 224 234 223 224 213 207 199 200 206 204 202 200 196 196 197 200 202 203 203 205 208 209 205 201 202 206 210 214 214 206 197 195 196 197 198 199 201 199 197 204 209 201 198 192 191 195 190 184 180 176 177 183 195 219 242
247 284 283 160 144 149 188 210 178 143 130 238 208 141 145 162 152 130 98 87 9 59 330 329 32 94 280 273 312 9 155 225 248 229 223 217 209 201 201 206 205 205 203 199 199 200 203 206 206 206 207 209 209 206 206 207 208 212 213 205 195 190 190 191 194 195 197 201 201 202 207 207 200 196 195 192 186 181 181 178 174 184 199 210 225 240
260 234 223 162 164 207 217 208 161 150 185 231 162 120 75 73 88 84 101 106 33 59 229 286 345 101 270 291 330 20 84 216 261 256 239 224 212 201 199 203 202 203 204 203 203 205 206 208 208 208 209 209 208 208 209 209 212 212 206 195 188 187 188 190 194 196 198 200 204 210 212 212 206 194 190 189 182 177 178 173 167 174 189 199 207 209
293 286 209 156 188 211 198 182 159 163 173 123 105 81 50 36 36 38 58 83 65 22 249 261 282 104 241 290 303 315 321 264 258 274 256 221 208 199 197 199 200 201 203 204 205 205 206 206 206 208 210 211 211 211 212 213 212 203 191 184 181 185 191 193 196 199 201 203 209 216 219 222 218 199 189 187 177 171 173 170 162 162 173 180 179 165
329 338 230 252 237 170 113 120 114 51 72 94 85 79 94 358 12 25 355 41 84 249 257 258 294 85 135 267 278 277 292 279 244 246 239 199 187 191 194 195 196 198 200 202 203 203 203 204 206 209 212 215 215 214 212 208 197 181 174 177 182 188 196 199 201 204 206 210 216 222 226 230 229 208 195 187 172 164 165 165 162 162 169 171 167 156
318 262 282 306 270 134 102 111 330 6 32 85 87 77 97 3 4 359 309 353 150 229 250 255 267 110 193 250 285 310 313 308 272 231 225 202 182 183 189 191 191 194 197 201 204 204 205 207 209 211 214 216 215 211 205 197 189 177 172 183 194 195 198 203 208 209 210 216 221 225 230 234 236 220 202 188 168 158 157 162 162 160 163 166 162 153
297 302 327 332 297 166 130 139 201 298 64 126 129 113 124 101 72 252 270 297 230 240 261 267 231 177 275 276 301 315 312 346 16 88 130 139 158 163 169 175 179 186 192 201 207 208 209 211 212 216 218 217 213 209 210 219 219 201 186 190 200 200 200 208 214 212 212 220 226 228 232 237 241 226 207 191 172 161 156 158 162 161 159 161 158 150
139 311 292 203 258 214 161 167 166 154 129 172 168 131 141 152 143 205 220 185 212 232 269 287 249 150 205 255 285 299 325 60 60 73 98 109 119 127 135 146 157 169 180 194 207 209 212 215 216 221 222 218 216 217 224 231 228 218 210 205 200 198 202 211 216 214 212 218 226 231 234 239 241 226 209 194 179 171 165 161 164 166 164 163 162 154
131 235 252 253 248 179 190 214 146 114 81 257 153 106 140 184 146 127 173 170 172 143 311 289 224 193 215 272 301 313 360 59 69 75 82 92 110 120 120 121 127 139 157 177 194 206 215 220 223 224 222 221 223 224 228 232 234 234 228 213 201 201 205 212 216 213 209 211 219 229 233 234 230 218 208 201 192 187 181 175 173 172 170 170 170 164
118 247 276 316 306 209 198 203 122 101 154 212 129 152 213 178 122 107 141 75 80 110 256 250 162 309 340 314 321 350 17 29 47 71 81 81 87 99 104 106 109 115 130 149 155 166 206 220 227 230 229 231 233 232 233 236 242 244 235 219 209 207 209 215 216 211 208 208 213 222 227 225 218 209 206 207 203 200 195 188 184 181 179 178 175 171
148 242 292 333 196 289 270 135 79 71 123 120 182 196 179 81 95 104 106 19 48 132 267 332 130 249 98 175 313 352 41 30 16 37 82 91 97 106 111 117 126 134 138 146 146 126 34 261 235 234 234 238 239 240 241 241 244 245 238 227 217 214 215 215 213 210 212 211 211 217 220 217 213 209 208 212 212 211 208 199 192 189 186 183 179 178
131 185 293 273 193 303 352 79 53 355 61 122 188 175 99 99 141 92 120 128 107 172 270 343 354 220 186 207 255 242 189 139 61 37 56 86 114 133 128 129 139 151 155 163 175 191 246 274 251 213 208 224 230 235 238 240 243 243 239 232 219 218 221 220 216 215 217 215 213 215 215 212 212 210 212 218 217 215 216 210 203 199 196 193 190 190
93 137 267 283 257 331 9 51 46 318 340 20 41 26 46 130 154 160 148 145 143 159 205 332 4 263 225 215 196 201 208 171 120 96 74 84 107 120 121 125 134 142 146 154 165 179 199 216 203 143 120 155 193 210 219 226 232 235 236 228 211 211 220 225 223 219 219 219 216 215 212 212 214 211 212 219 220 220 221 220 216 210 207 206 205 207
57 112 203 285 330 31 31 56 168 199 289 7 38 10 353 61 111 135 96 87 129 141 166 155 88 268 254 208 181 197 197 170 147 131 123 126 127 126 124 126 130 131 132 140 149 157 164 162 145 121 114 122 135 150 162 173 189 200 206 207 205 207 213 220 222 220 220 220 218 215 212 213 217 214 214 219 219 220 223 222 223 223 222 222 223 224
87 125 166 290 10 64 219 257 234 201 186 134 106 81 168 133 121 122 116 310 102 126 159 154 163 263 260 196 178 193 187 174 158 146 146 151 144 140 140 139 139 138 138 143 148 151 157 152 134 127 126 128 134 140 143 146 160 178 187 194 203 211 211 216 220 218 218 219 216 214 213 215 218 215 215 218 216 219 226 225 224 229 233 235 236 238
136 103 106 97 62 190 255 300 359 40 115 102 85 98 139 124 108 121 176 231 105 109 146 121 123 261 263 268 220 203 200 193 167 153 152 159 156 150 146 143 142 141 143 147 150 154 160 159 153 145 136 134 135 134 135 139 152 171 185 196 206 214 214 217 217 212 213 216 213 211 213 217 218 212 210 213 215 220 225 227 230 234 237 238 236 238
111 81 81 345 312 321 314 328 359 41 67 61 27 21 72 76 112 142 175 179 130 153 151 93 103 258 281 329 300 173 155 147 164 156 147 150 156 155 149 145 142 141 143 145 148 152 155 156 156 152 144 137 131 128 130 134 145 164 178 192 209 213 206 208 210 206 207 210 208 208 213 217 217 210 206 210 220 225 224 225 231 236 240 242 239 237
154 108 103 87 17 355 345 340 347 3 30 43 339 335 14 62 74 99 131 74 100 181 154 119 185 250 286 353 50 131 131 128 154 159 153 153 158 163 161 155 151 149 149 150 149 148 148 148 149 144 137 129 124 122 127 134 143 154 162 174 191 186 174 184 198 203 203 203 204 208 212 214 213 210 209 216 227 232 230 228 231 236 239 242 244 241
142 139 119 120 132 166 226 267 269 301 353 1 338 344 3 38 53 74 90 70 112 186 127 131 194 248 297 21 68 124 130 129 150 160 162 164 164 166 166 163 161 159 157 156 153 150 148 146 143 136 128 122 122 122 124 132 140 142 145 145 140 142 151 169 190 202 205 204 205 210 212 211 212 213 218 225 229 232 233 231 233 238 239 240 244 243
111 67 84 126 143 174 182 204 216 154 90 76 315 352 353 358 47 86 90 93 173 150 98 209 195 165 168 55 101 170 151 145 163 171 174 174 170 169 168 166 167 164 161 159 156 155 152 147 143 137 131 126 122 122 121 123 129 132 135 136 131 135 148 163 180 194 203 206 209 214 217 217 218 222 224 226 228 232 236 235 238 244 243 240 241 242
97 38 30 96 82 145 155 143 175 119 116 160 169 43 355 360 61 84 99 165 150 120 157 263 211 138 163 321 341 289 238 181 181 179 179 178 174 172 169 167 167 165 163 162 160 160 157 154 152 146 141 136 130 129 127 124 127 128 131 134 133 136 144 153 166 180 194 204 213 219 221 221 225 230 232 235 241 246 252 252 248 247 245 242 244 248
113 82 150 94 55 42 90 106 131 117 105 124 115 78 18 31 77 97 119 160 127 137 196 213 111 111 144 339 339 321 314 305 24 89 172 178 179 178 172 168 167 166 166 166 165 165 163 162 161 156 151 146 142 140 137 136 139 138 138 138 135 136 139 144 156 172 191 208 219 228 230 231 235 237 237 242 247 250 256 257 248 242 243 245 251 258
106 84 98 106 82 49 45 77 117 111 98 64 45 37 35 52 76 85 66 67 100 114 155 122 91 59 344 331 331 347 31 73 70 62 72 90 138 183 178 174 174 172 172 171 169 168 168 166 164 159 155 152 149 148 147 148 151 152 151 148 145 144 142 143 149 158 173 188 203 218 226 229 231 229 223 219 220 221 227 232 227 225 230 232 240 249
80 102 50 91 89 33 3 35 73 93 107 85 42 22 44 63 55 51 38 28 73 93 114 103 86 41 359 8 14 34 58 67 61 50 47 49 56 126 166 175 179 177 177 176 174 172 170 168 165 162 160 157 155 154 155 158 161 163 161 158 157 154 149 154 160 161 165 169 172 181 188 188 184 180 177 175 178 181 181 187 199 205 212 218 227 242
63 105 39 64 91 250 334 52 78 81 83 72 36 7 16 58 67 51 38 15 58 140 126 98 96 69 319 357 32 48 55 55 47 38 40 45 51 64 85 135 163 171 176 174 174 176 174 170 168 167 165 165 164 161 160 163 169 172 170 168 169 166 162 167 172 173 180 185 185 184 180 180 181 181 184 187 188 191 196 198 200 205 217 222 219 226
73 116 121 85 115 242 308 18 103 78 64 31 320 330 3 95 114 94 44 16 15 110 128 126 150 219 304 359 45 51 50 48 43 39 41 45 52 59 63 76 113 144 156 156 155 158 162 164 166 168 167 165 166 166 163 164 170 174 174 174 178 181 182 185 187 190 197 197 200 207 207 205 205 202 205 209 207 207 207 211 215 220 227 231 232 241
65 104 132 126 128 222 288 332 46 56 89 263 277 260 174 134 114 98 61 10 12 36 100 126 82 19 10 35 67 72 66 59 54 52 51 52 57 63 65 68 82 107 126 132 129 126 127 131 140 151 157 158 159 159 161 165 168 172 175 179 184 187 188 190 190 192 195 197 201 207 209 211 218 224 233 234 232 240 250 252 252 250 250 255 257 256
77 95 124 109 110 160 305 30 49 266 222 241 343 70 119 121 105 97 78 29 22 24 38 54 35 12 26 60 85 86 77 68 62 58 55 54 55 59 61 62 66 80 100 120 129 125 120 116 115 125 135 145 152 152 149 158 169 174 176 177 177 175 173 175 176 177 182 188 195 202 207 212 219 225 231 234 238 252 264 266 267 271 273 274 271 266
129 127 136 102 101 139 76 68 147 225 219 345 345 28 103 80 66 81 62 20 14 12 18 39 22 15 40 64 98 93 74 66 62 56 52 51 50 51 54 54 56 63 73 93 121 133 139 142 137 129 120 120 139 148 135 127 148 174 178 176 178 178 175 173 172 171 175 182 188 200 210 215 215 215 219 225 235 244 250 257 265 272 278 284 291 292
143 130 130 122 133 145 117 101 147 158 181 237 304 325 119 300 316 104 98 24 2 8 14 35 25 24 38 45 69 144 74 58 55 44 42 49 49 48 53 54 57 62 64 67 67 45 202 192 182 168 145 116 141 167 146 123 126 157 176 179 184 184 182 183 179 170 175 188 191 195 206 215 215 214 216 223 233 241 249 260 271 277 281 286 294 297
130 152 168 167 184 115 101 97 100 136 208 224 254 280 298 298 274 165 114 63 352 14 34 77 61 37 39 37 35 192 138 54 42 14 26 41 44 43 48 51 55 59 58 58 59 55 58 61 272 211 200 64 182 208 194 168 160 174 187 194 199 196 192 193 190 181 178 192 199 200 205 213 216 216 218 222 227 235 245 257 265 270 276 280 283 286
49 62 122 129 149 117 117 138 163 181 221 242 250 278 316 317 277 134 88 49 338 27 62 92 76 58 55 45 44 73 94 70 340 339 12 28 32 32 35 37 42 47 45 42 43 50 57 49 36 107 182 68 64 236 240 234 228 227 224 239 253 235 216 209 212 220 228 230 227 222 220 225 229 231 232 232 234 240 247 257 265 270 275 278 280 284
28 23 56 97 133 130 130 140 152 184 233 262 249 290 326 327 199 120 103 240 214 79 89 92 79 67 66 59 54 61 74 94 295 345 5 14 16 19 18 13 15 17 18 19 17 16 20 18 15 253 219 207 134 289 282 264 255 249 241 250 263 261 250 238 235 245 248 245 245 243 241 244 246 247 250 252 252 254 258 264 270 274 276 277 279 282
20 16 45 99 96 73 106 108 73 202 253 311 297 319 339 342 150 144 214 207 149 114 98 85 80 71 63 61 61 60 59 50 2 348 351 350 344 344 344 343 343 338 335 332 330 335 332 316 310 302 285 275 268 276 290 279 270 268 261 257 257 260 260 252 243 245 250 251 252 251 249 251 253 254 258 259 259 262 268 272 274 274 276 278 280 282
12 360 16 65 54 38 92 102 89 178 350 335 318 336 4 31 179 178 172 151 126 113 98 77 72 65 52 50 49 37 14 358 343 330 328 326 321 320 318 316 313 308 305 303 301 303 303 300 297 292 285 279 273 273 278 279 275 275 276 273 264 260 259 249 237 234 241 249 255 255 254 254 255 257 261 264 266 270 273 276 277 278 278 280 282 286
28 31 29 28 25 43 68 73 109 165 341 343 328 338 15 38 161 113 100 108 104 96 87 71 61 51 34 19 9 353 334 326 323 319 316 312 309 309 308 309 309 303 298 299 299 294 293 294 294 289 285 280 276 275 276 277 277 276 274 274 271 264 257 248 239 236 237 240 245 249 252 254 257 260 263 265 268 270 269 271 278 282 281 280 282 286
4 60 128 324 353 75 92 52 123 184 341 16 49 90 50 65 111 115 106 98 85 73 61 49 42 27 4 347 338 329 320 316 312 310 309 307 304 304 302 302 304 301 296 294 293 291 290 290 288 286 284 282 280 278 277 276 275 274 271 270 272 272 267 259 251 247 244 243 243 245 249 252 255 257 259 261 263 265 267 272 280 283 281 278 278 278
11 102 117 92 43 78 98 108 128 148 69 60 77 94 93 87 94 100 97 95 89 71 44 27 14 351 337 329 321 315 313 311 307 305 306 304 302 301 298 296 296 297 296 294 292 291 290 288 287 285 281 280 280 280 282 281 276 272 270 269 268 267 265 262 259 256 251 247 244 244 246 249 250 252 254 256 259 263 267 272 276 277 273 271 270 270
69 98 101 98 92 76 75 94 121 120 92 85 88 89 88 87 83 75 74 77 76 58 20 355 336 325 323 316 310 308 308 307 305 304 303 302 301 299 297 295 294 293 294 293 293 294 292 290 290 288 284 281 278 275 278 280 276 270 265 256 245 240 237 239 243 246 245 243 242 243 246 248 251 253 256 258 261 263 265 266 268 268 266 265 265 268
4 53 77 99 112 99 94 123 137 115 104 103 102 93 83 76 62 47 42 34 21 354 331 326 323 319 318 312 306 304 304 303 301 300 298 297 297 297 296 296 295 294 293 292 293 294 293 291 290 289 288 285 281 277 275 273 269 263 254 242 235 236 237 235 235 236 238 240 244 247 251 255 259 262 265 267 267 265 264 263 264 264 264 264 265 267
343 37 71 98 88 107 196 224 153 120 113 100 96 92 82 67 42 18 8 352 333 320 316 316 314 312 310 307 304 303 301 300 297 296 295 295 295 295 295 294 293 293 293 292 291 290 289 287 285 285 286 286 285 282 278 273 268 262 255 250 250 255 257 256 254 252 251 251 253 255 258 261 265 268 271 272 273 273 272 271 270 269 268 268 269 270
331 27 92 103 63 28 288 280 123 137 120 78 81 93 89 62 10 337 326 314 306 306 306 305 304 304 303 301 301 300 298 297 296 294 293 293 292 292 291 290 290 290 290 291 291 289 287 285 283 282 282 284 286 287 284 280 275 268 261 257 255 258 263 265 266 267 266 265 265 265 265 267 268 270 270 271 271 272 273 274 274 274 273 272 272 272
53 106 106 84 75 294 255 243 148 164 227 262 111 127 133 4 326 313 306 302 301 302 302 301 299 299 298 298 298 298 297 296 295 294 293 292 291 291 291 290 290 289 289 289 289 288 286 284 283 281 280 281 284 286 285 284 282 278 272 264 259 258 262 265 267 267 267 268 268 269 269 270 269 269 268 269 269 270 271 273 274 275 275 275 274 273
105 158 157 130 148 202 219 206 178 192 234 236 164 169 275 308 316 313 310 309 307 305 306 308 307 306 305 304 303 302 299 297 296 295 294 293 292 292 292 292 291 290 289 289 288 286 285 282 280 278 276 276 278 282 284 285 285 282 276 269 264 262 262 264 264 264 265 268 269 269 269 268 267 267 268 269 271 273 273 274 274 275 275 275 273 272
Height
1469 1472 1475 1475 1474 1472 1472 1473 1473 1474 1476 1477 1477 1477 1478 1477 1472 1465 1460 1457 1457 1459 1463 1464 1463 1463 1465 1466 1467 1469 1472 1473 1474 1477 1478 1478 1479 1480 1482 1483 1483 1484 1485 1488 1491 1493 1495 1497 1499 1501 1503 1505 1507 1509 1510 1510 1511 1511 1512 1513 1514 1516 1518 1520 1521 1522 1523 1524 1525 1525 1526 1526 1526 1526 1527 1528 1528 1528 1527 1527 1527 1528 1528 1529 1530 1531
1470 1475 1474 1470 1469 1469 1471 1474 1474 1475 1476 1476 1476 1477 1476 1476 1470 1462 1459 1458 1456 1458 1464 1465 1462 1463 1465 1465 1466 1466 1469 1471 1471 1474 1475 1476 1478 1479 1481 1483 1484 1485 1486 1489 1490 1491 1493 1495 1497 1499 1500 1502 1504 1506 1508 1510 1510 1511 1512 1512 1513 1515 1518 1519 1521 1522 1523 1524 1525 1525 1526 1526 1526 1526 1527 1527 1528 1528 1527 1526 1526 1527 1528 1529 1530 1531
1474 1474 1468 1466 1469 1471 1473 1474 1474 1474 1475 1476 1476 1476 1474 1473 1469 1463 1459 1458 1456 1457 1463 1463 1461 1465 1467 1467 1467 1465 1464 1465 1466 1468 1470 1473 1476 1479 1481 1482 1483 1485 1487 1488 1489 1490 1491 1493 1495 1496 1498 1500 1502 1505 1507 1509 1509 1510 1511 1512 1513 1515 1517 1519 1520 1522 1523 1524 1525 1525 1526 1526 1526 1526 1526 1527 1527 1527 1527 1526 1526 1527 1527 1529 1530 1531
1477 1470 1464 1466 1468 1469 1470 1471 1472 1473 1474 1474 1474 1473 1472 1471 1471 1468 1462 1459 1459 1460 1463 1462 1462 1467 1468 1468 1468 1467 1466 1466 1468 1469 1470 1472 1474 1476 1478 1479 1480 1482 1484 1486 1488 1490 1491 1492 1493 1494 1497 1499 1501 1503 1505 1507 1508 1509 1510 1511 1513 1514 1517 1518 1520 1522 1523 1524 1525 1525 1525 1526 1526 1526 1526 1526 1527 1527 1527 1527 1526 1526 1527 1529 1530 1531
1471 1463 1462 1465 1466 1467 1468 1469 1471 1471 1472 1473 1471 1470 1470 1468 1470 1470 1467 1463 1462 1463 1465 1463 1467 1472 1472 1471 1470 1469 1470 1470 1471 1473 1473 1474 1476 1477 1478 1479 1480 1481 1482 1484 1486 1488 1490 1490 1491 1493 1496 1498 1499 1501 1503 1505 1507 1508 1509 1510 1512 1514 1517 1519 1520 1522 1524 1525 1525 1525 1525 1525 1525 1525 1526 1526 1527 1527 1527 1527 1527 1527 1528 1529 1530 1531
1466 1460 1461 1463 1464 1467 1468 1469 1469 1470 1472 1471 1468 1466 1465 1465 1467 1467 1466 1465 1466 1469 1468 1467 1475 1481 1476 1473 1472 1470 1471 1471 1473 1474 1473 1476 1479 1478 1478 1479 1481 1483 1483 1484 1485 1486 1488 1490 1492 1493 1495 1497 1498 1500 1502 1504 1506 1507 1509 1510 1512 1515 1517 1519 1521 1523 1524 1525 1525 1525 1525 1526 1526 1526 1527 1527 1528 1528 1528 1529 1529 1529 1529 1529 1530 1531
1462 1459 1459 1461 1463 1465 1469 1470 1468 1469 1472 1471 1466 1463 1463 1465 1466 1465 1463 1465 1471 1474 1472 1470 1477 1483 1479 1473 1472 1471 1471 1472 1473 1474 1474 1476 1477 1476 1477 1479 1482 1483 1484 1484 1485 1487 1488 1490 1492 1493 1494 1496 1497 1500 1502 1503 1505 1507 1508 1510 1513 1515 1517 1520 1521 1523 1524 1525 1526 1527 1527 1527 1527 1528 1529 1529 1529 1530 1530 1530 1530 1530 1529 1529 1530 1531
1459 1458 1459 1461 1462 1464 1468 1468 1465 1466 1469 1468 1465 1463 1464 1464 1465 1466 1464 1467 1472 1472 1472 1472 1473 1479 1480 1475 1474 1474 1473 1474 1474 1473 1474 1474 1474 1474 1476 1479 1482 1483 1483 1484 1485 1486 1488 1489 1491 1492 1494 1495 1497 1499 1501 1502 1504 1506 1508 1511 1513 1515 1518 1520 1522 1523 1524 1526 1527 1527 1528 1528 1529 1529 1530 1531 1531 1531 1531 1531 1531 1531 1530 1530 1530 1531
1458 1457 1458 1459 1462 1463 1462 1460 1460 1462 1464 1463 1463 1463 1463 1462 1464 1467 1466 1469 1474 1474 1475 1477 1475 1481 1484 1476 1475 1476 1474 1476 1474 1471 1472 1471 1471 1472 1475 1479 1481 1483 1484 1484 1485 1486 1487 1489 1491 1492 1494 1495 1497 1498 1500 1501 1503 1506 1509 1511 1513 1516 1518 1521 1522 1524 1525 1526 1527 1527 1528 1529 1529 1530 1531 1532 1532 1532 1532 1532 1532 1531 1531 1531 1531 1532
1457 1456 1455 1457 1460 1459 1455 1455 1457 1459 1460 1459 1461 1463 1464 1466 1469 1470 1469 1470 1475 1479 1482 1482 1479 1484 1486 1476 1473 1475 1474 1476 1475 1470 1470 1470 1470 1471 1474 1478 1480 1482 1483 1484 1486 1487 1488 1490 1491 1493 1494 1495 1497 1498 1499 1501 1503 1505 1508 1511 1514 1516 1519 1521 1523 1524 1524 1525 1526 1527 1528 1529 1529 1529 1530 1532 1533 1533 1533 1532 1532 1532 1531 1532 1532 1533
1455 1454 1454 1454 1455 1454 1451 1454 1457 1456 1457 1458 1460 1462 1464 1468 1471 1473 1475 1474 1479 1487 1487 1484 1482 1484 1488 1481 1475 1477 1476 1477 1476 1471 1468 1468 1470 1473 1474 1476 1478 1479 1482 1484 1486 1488 1489 1491 1492 1493 1494 1495 1496 1497 1498 1500 1500 1502 1507 1513 1515 1518 1520 1522 1523 1523 1524 1525 1526 1527 1528 1529 1530 1530 1530 1531 1532 1533 1533 1533 1533 1532 1532 1533 1533 1534
1456 1454 1454 1451 1450 1451 1450 1453 1456 1456 1458 1459 1461 1463 1466 1473 1475 1476 1480 1479 1486 1494 1488 1484 1485 1484 1487 1484 1477 1477 1476 1476 1475 1471 1467 1466 1467 1471 1474 1475 1477 1479 1482 1485 1487 1488 1490 1491 1492 1492 1493 1494 1496 1497 1498 1496 1497 1504 1512 1517 1518 1519 1520 1522 1523 1524 1525 1526 1527 1528 1529 1530 1530 1530 1530 1531 1532 1533 1534 1534 1534 1533 1533 1534 1534 1535
1456 1452 1453 1451 1448 1449 1451 1456 1458 1458 1459 1460 1462 1467 1474 1483 1485 1485 1489 1489 1491 1492 1486 1486 1487 1485 1486 1483 1478 1478 1476 1474 1473 1469 1466 1465 1466 1468 1472 1475 1477 1480 1483 1485 1487 1489 1490 1491 1491 1492 1492 1494 1496 1496 1496 1496 1502 1510 1516 1519 1520 1519 1521 1523 1524 1525 1526 1527 1528 1528 1529 1530 1531 1531 1531 1532 1532 1533 1534 1534 1535 1535 1535 1535 1535 1535
1460 1456 1453 1451 1449 1448 1451 1457 1460 1460 1460 1460 1462 1467 1476 1487 1494 1496 1501 1502 1496 1490 1487 1488 1486 1485 1487 1483 1479 1479 1476 1473 1470 1467 1466 1466 1467 1469 1471 1475 1478 1480 1483 1485 1488 1490 1491 1491 1492 1492 1493 1495 1495 1495 1498 1502 1506 1510 1511 1514 1517 1518 1521 1523 1524 1525 1526 1527 1527 1528 1529 1530 1531 1532 1532 1532 1532 1533 1534 1535 1536 1537 1536 1536 1536 1536
1466 1465 1455 1451 1451 1449 1449 1452 1454 1455 1457 1461 1462 1464 1470 1477 1484 1491 1494 1493 1492 1490 1489 1487 1484 1487 1488 1483 1480 1479 1476 1472 1470 1468 1467 1468 1470 1471 1473 1477 1479 1481 1484 1486 1489 1491 1491 1492 1493 1493 1494 1495 1494 1496 1502 1504 1505 1506 1507 1509 1512 1514 1517 1519 1520 1521 1523 1524 1526 1527 1528 1529 1530 1531 1532 1532 1532 1532 1534 1535 1537 1538 1538 1538 1538 1537
1467 1465 1453 1449 1450 1448 1449 1449 1449 1452 1458 1464 1465 1463 1467 1466 1469 1483 1492 1489 1489 1489 1488 1487 1487 1489 1487 1481 1480 1480 1476 1473 1471 1470 1470 1471 1472 1472 1474 1477 1479 1481 1484 1486 1489 1491 1492 1493 1494 1494 1495 1495 1495 1497 1501 1503 1504 1505 1506 1507 1509 1511 1513 1514 1515 1517 1520 1522 1524 1526 1527 1528 1529 1531 1531 1532 1532 1533 1534 1535 1536 1538 1539 1539 1539 1538
1467 1462 1451 1450 1449 1446 1448 1448 1448 1452 1457 1463 1464 1463 1465 1463 1462 1478 1494 1495 1492 1489 1491 1492 1491 1490 1488 1483 1479 1479 1478 1475 1474 1474 1475 1477 1477 1476 1476 1478 1480 1483 1486 1487 1488 1491 1492 1494 1495 1495 1496 1496 1496 1498 1500 1502 1503 1503 1504 1506 1508 1509 1510 1511 1513 1516 1519 1520 1522 1524 1526 1527 1528 1530 1530 1531 1532 1532 1533 1535 1536 1537 1539 1539 1539 1538
1460 1459 1453 1451 1450 1447 1446 1447 1448 1450 1453 1459 1461 1459 1461 1465 1465 1471 1485 1496 1497 1494 1493 1496 1494 1492 1492 1488 1483 1480 1479 1479 1479 1478 1478 1479 1481 1482 1481 1480 1482 1486 1489 1489 1489 1491 1493 1495 1495 1495 1495 1496 1496 1498 1500 1501 1502 1502 1504 1506 1507 1508 1509 1510 1513 1518 1519 1519 1520 1522 1524 1526 1528 1529 1530 1530 1531 1532 1533 1534 1535 1537 1538 1539 1539 1539
1454 1458 1457 1452 1452 1450 1446 1447 1451 1452 1451 1454 1456 1455 1458 1466 1469 1472 1481 1491 1497 1500 1498 1497 1499 1496 1491 1488 1485 1482 1481 1480 1481 1481 1480 1480 1482 1484 1482 1480 1483 1486 1487 1489 1490 1492 1494 1496 1497 1496 1496 1496 1496 1498 1499 1501 1502 1502 1503 1505 1507 1508 1509 1510 1513 1517 1518 1517 1517 1519 1521 1524 1526 1528 1529 1530 1531 1532 1533 1534 1535 1536 1538 1538 1539 1539
1453 1459 1460 1453 1451 1451 1449 1452 1459 1459 1454 1452 1454 1456 1459 1464 1468 1472 1479 1482 1486 1498 1502 1498 1499 1494 1486 1484 1483 1481 1482 1481 1481 1482 1481 1481 1482 1483 1482 1482 1484 1486 1486 1488 1490 1492 1494 1497 1498 1496 1496 1497 1497 1498 1500 1501 1502 1502 1503 1504 1505 1507 1509 1509 1512 1514 1515 1515 1517 1519 1521 1523 1526 1527 1529 1530 1531 1532 1533 1534 1535 1536 1537 1538 1538 1539
1454 1459 1461 1455 1452 1456 1458 1459 1462 1462 1459 1457 1458 1461 1463 1467 1470 1472 1479 1482 1480 1488 1497 1498 1500 1493 1483 1482 1481 1480 1482 1480 1480 1481 1482 1483 1483 1483 1484 1484 1486 1487 1487 1489 1490 1492 1495 1496 1497 1496 1497 1498 1499 1500 1501 1501 1502 1502 1502 1503 1504 1506 1507 1508 1510 1511 1513 1515 1517 1519 1521 1523 1525 1527 1529 1530 1531 1532 1533 1534 1535 1536 1537 1537 1537 1538
1454 1457 1460 1459 1458 1461 1462 1460 1459 1460 1460 1460 1462 1467 1469 1469 1470 1473 1481 1487 1481 1483 1490 1494 1497 1491 1481 1480 1481 1480 1481 1479 1478 1479 1481 1483 1483 1484 1486 1486 1486 1487 1488 1490 1491 1493 1495 1496 1496 1497 1498 1500 1500 1501 1502 1502 1502 1502 1503 1503 1504 1505 1505 1506 1508 1510 1512 1514 1516 1519 1521 1522 1524 1526 1528 1529 1530 1532 1533 1533 1534 1535 1536 1536 1537 1537
1452 1455 1459 1463 1465 1465 1463 1460 1460 1460 1460 1460 1462 1468 1470 1468 1469 1471 1477 1482 1482 1487 1490 1489 1492 1489 1480 1480 1481 1480 1481 1481 1479 1479 1480 1482 1484 1485 1486 1486 1487 1488 1489 1491 1492 1493 1495 1496 1497 1498 1499 1500 1501 1501 1502 1502 1502 1502 1503 1503 1504 1504 1505 1505 1507 1509 1511 1513 1515 1517 1519 1520 1522 1524 1526 1527 1528 1530 1531 1532 1532 1533 1534 1535 1535 1536
1451 1456 1461 1466 1468 1466 1462 1460 1460 1460 1460 1462 1465 1468 1469 1469 1471 1472 1474 1475 1479 1486 1487 1487 1493 1489 1480 1480 1481 1480 1482 1482 1482 1482 1482 1484 1486 1487 1488 1488 1489 1490 1492 1493 1493 1494 1496 1496 1498 1498 1499 1500 1500 1501 1501 1501 1502 1502 1502 1503 1503 1504 1505 1505 1506 1508 1510 1512 1514 1516 1517 1519 1521 1523 1524 1525 1526 1527 1528 1529 1530 1531 1532 1533 1534 1535
1452 1459 1463 1467 1474 1476 1472 1467 1464 1463 1465 1469 1472 1472 1470 1470 1471 1472 1475 1474 1478 1485 1484 1484 1492 1490 1482 1482 1482 1481 1483 1484 1484 1485 1484 1485 1486 1487 1489 1490 1491 1492 1494 1495 1495 1496 1496 1496 1497 1498 1499 1499 1500 1500 1501 1501 1502 1502 1502 1502 1503 1504 1505 1505 1506 1508 1510 1511 1514 1515 1517 1519 1521 1522 1522 1524 1525 1527 1528 1528 1528 1530 1532 1532 1533 1534
1453 1461 1461 1463 1475 1484 1482 1477 1472 1471 1473 1475 1475 1474 1473 1472 1469 1470 1474 1474 1477 1486 1486 1482 1487 1488 1484 1485 1484 1484 1485 1485 1486 1487 1486 1487 1487 1488 1489 1490 1492 1493 1494 1495 1496 1496 1496 1497 1497 1498 1498 1499 1499 1500 1501 1501 1502 1502 1502 1502 1503 1504 1505 1506 1507 1508 1510 1512 1514 1516 1517 1519 1520 1521 1522 1524 1525 1527 1528 1527 1528 1530 1531 1530 1531 1533
1456 1463 1463 1461 1466 1472 1473 1473 1473 1473 1476 1479 1478 1476 1476 1476 1473 1471 1475 1476 1478 1484 1486 1483 1484 1486 1486 1487 1487 1486 1485 1485 1486 1487 1487 1487 1487 1488 1490 1490 1492 1494 1495 1496 1496 1496 1497 1497 1498 1498 1498 1499 1499 1500 1500 1501 1502 1502 1503 1503 1504 1505 1506 1507 1508 1509 1511 1513 1515 1516 1517 1519 1520 1521 1523 1524 1525 1526 1527 1527 1528 1529 1529 1528 1529 1531
1456 1464 1467 1466 1467 1469 1470 1472 1473 1473 1476 1478 1478 1477 1476 1476 1473 1471 1474 1478 1480 1483 1485 1486 1485 1486 1488 1490 1490 1490 1488 1487 1487 1486 1486 1487 1488 1489 1490 1491 1493 1494 1495 1496 1496 1496 1497 1497 1498 1498 1498 1499 1499 1500 1501 1502 1502 1503 1504 1505 1505 1506 1507 1508 1509 1510 1512 1514 1515 1516 1517 1518 1520 1521 1522 1523 1523 1525 1526 1526 1528 1529 1528 1528 1529 1529
1457 1465 1468 1469 1472 1475 1475 1475 1474 1474 1476 1478 1478 1479 1477 1474 1473 1473 1478 1482 1482 1480 1483 1487 1488 1489 1492 1494 1493 1492 1491 1490 1489 1489 1488 1489 1489 1490 1491 1491 1492 1493 1494 1495 1496 1497 1497 1497 1498 1498 1499 1499 1500 1500 1501 1502 1502 1503 1504 1505 1506 1507 1508 1508 1509 1510 1512 1513 1514 1515 1516 1517 1518 1519 1521 1521 1522 1524 1525 1525 1527 1528 1528 1528 1528 1527
1457 1466 1469 1469 1474 1479 1478 1477 1474 1472 1475 1481 1484 1484 1482 1479 1479 1480 1484 1489 1486 1485 1489 1491 1490 1493 1496 1497 1495 1493 1492 1491 1490 1490 1490 1490 1491 1491 1491 1491 1492 1493 1494 1495 1496 1497 1497 1498 1498 1499 1499 1500 1500 1501 1502 1503 1503 1504 1505 1506 1507 1508 1508 1509 1510 1511 1512 1513 1514 1515 1515 1516 1517 1518 1520 1521 1522 1523 1523 1524 1526 1526 1526 1527 1526 1526
1456 1466 1470 1468 1473 1479 1479 1478 1475 1472 1474 1480 1485 1486 1484 1482 1483 1484 1489 1492 1490 1491 1495 1493 1490 1495 1498 1497 1496 1494 1492 1491 1491 1491 1492 1491 1491 1492 1492 1493 1493 1493 1494 1495 1496 1497 1498 1499 1499 1500 1500 1501 1501 1502 1503 1504 1505 1505 1506 1507 1508 1508 1509 1510 1510 1511 1512 1513 1514 1515 1516 1517 1517 1518 1520 1521 1522 1523 1523 1524 1525 1525 1525 1525 1525 1524
1457 1467 1471 1469 1473 1479 1479 1478 1477 1475 1476 1479 1484 1488 1487 1485 1488 1492 1496 1497 1494 1492 1493 1491 1491 1497 1499 1498 1497 1495 1493 1493 1494 1495 1494 1494 1493 1493 1493 1493 1494 1495 1495 1495 1496 1496 1497 1499 1499 1500 1501 1502 1502 1503 1503 1504 1505 1506 1507 1508 1508 1509 1509 1510 1510 1511 1512 1513 1514 1515 1516 1516 1517 1518 1519 1520 1521 1522 1522 1523 1523 1523 1523 1523 1523 1523
1462 1465 1468 1470 1474 1479 1481 1481 1478 1476 1478 1483 1487 1492 1494 1493 1493 1496 1500 1501 1500 1497 1494 1493 1496 1500 1501 1499 1498 1497 1497 1497 1498 1498 1497 1497 1496 1494 1494 1494 1495 1496 1496 1497 1497 1497 1498 1499 1500 1501 1501 1502 1503 1504 1504 1505 1506 1507 1507 1508 1508 1509 1509 1509 1509 1510 1511 1512 1513 1514 1515 1515 1516 1517 1518 1518 1519 1520 1521 1521 1522 1522 1522 1522 1522 1523
1465 1464 1469 1473 1473 1478 1484 1482 1478 1479 1484 1490 1494 1494 1496 1495 1493 1497 1503 1506 1503 1501 1499 1499 1501 1503 1502 1501 1501 1500 1500 1501 1502 1501 1500 1499 1498 1498 1497 1497 1497 1497 1498 1498 1499 1499 1499 1501 1502 1502 1502 1503 1504 1504 1505 1506 1506 1507 1508 1508 1508 1509 1509 1509 1509 1509 1510 1511 1512 1513 1513 1514 1515 1515 1516 1517 1518 1518 1519 1520 1520 1521 1521 1521 1521 1522
1466 1465 1471 1474 1475 1481 1486 1481 1480 1487 1493 1497 1498 1496 1496 1497 1496 1497 1505 1508 1505 1504 1503 1502 1503 1504 1503 1503 1503 1502 1503 1503 1503 1502 1502 1502 1502 1501 1500 1500 1500 1500 1500 1500 1501 1500 1500 1501 1503 1503 1503 1503 1504 1505 1505 1507 1507 1507 1508 1508 1508 1509 1509 1509 1509 1509 1510 1510 1511 1512 1513 1513 1514 1514 1515 1516 1516 1517 1518 1518 1519 1519 1520 1520 1520 1520
1465 1466 1470 1476 1479 1484 1485 1481 1485 1495 1500 1501 1500 1498 1498 1499 1496 1495 1502 1508 1508 1507 1506 1505 1505 1505 1504 1504 1504 1503 1504 1504 1503 1503 1504 1504 1504 1504 1503 1503 1503 1503 1503 1503 1503 1503 1502 1503 1504 1505 1505 1505 1505 1505 1505 1506 1508 1508 1508 1508 1508 1508 1509 1509 1509 1509 1509 1510 1511 1512 1512 1513 1513 1513 1514 1515 1515 1516 1516 1517 1517 1518 1518 1518 1518 1519
1465 1467 1468 1474 1481 1484 1485 1490 1497 1503 1504 1502 1501 1500 1500 1499 1498 1497 1503 1510 1510 1508 1508 1507 1506 1506 1505 1504 1505 1504 1504 1504 1503 1504 1506 1506 1506 1506 1506 1505 1505 1505 1505 1505 1505 1505 1505 1505 1505 1506 1506 1507 1507 1506 1505 1505 1507 1508 1509 1509 1508 1508 1508 1508 1509 1509 1509 1510 1510 1511 1512 1513 1513 1513 1513 1513 1514 1514 1515 1515 1516 1516 1516 1517 1517 1517
1465 1466 1466 1470 1481 1485 1487 1496 1506 1508 1504 1501 1501 1501 1500 1500 1500 1498 1502 1509 1510 1509 1509 1508 1507 1507 1506 1505 1505 1504 1504 1505 1507 1509 1509 1508 1507 1507 1507 1507 1506 1506 1505 1505 1505 1505 1506 1506 1506 1506 1507 1507 1507 1507 1507 1507 1507 1508 1509 1509 1508 1508 1508 1508 1509 1509 1509 1510 1510 1511 1512 1512 1512 1512 1512 1512 1513 1513 1513 1514 1514 1514 1515 1515 1515 1515
1466 1469 1468 1469 1479 1484 1482 1487 1498 1503 1502 1502 1503 1501 1499 1500 1500 1499 1502 1509 1511 1509 1509 1508 1507 1508 1507 1506 1506 1505 1505 1509 1511 1512 1510 1509 1509 1508 1508 1508 1507 1506 1506 1505 1505 1505 1505 1506 1506 1506 1506 1506 1506 1506 1507 1507 1507 1507 1508 1508 1508 1507 1507 1508 1509 1510 1510 1510 1510 1510 1511 1511 1512 1512 1512 1512 1512 1512 1512 1513 1513 1513 1513 1513 1514 1514
1470 1473 1473 1473 1478 1482 1481 1486 1498 1504 1504 1504 1502 1500 1499 1499 1499 1500 1503 1509 1510 1509 1508 1508 1508 1508 1508 1508 1508 1507 1509 1511 1512 1512 1511 1510 1510 1509 1509 1508 1508 1507 1506 1506 1505 1505 1505 1505 1505 1505 1504 1504 1504 1504 1505 1505 1506 1506 1506 1507 1507 1506 1506 1506 1508 1509 1510 1509 1509 1509 1509 1510 1510 1511 1511 1511 1511 1511 1511 1511 1512 1512 1512 1512 1512 1512
1479 1480 1480 1481 1484 1485 1487 1496 1507 1508 1504 1502 1501 1500 1499 1498 1499 1501 1504 1507 1509 1509 1508 1508 1508 1508 1508 1508 1509 1510 1512 1513 1512 1512 1511 1510 1510 1509 1509 1509 1508 1508 1507 1506 1506 1505 1505 1505 1504 1504 1503 1503 1503 1503 1503 1503 1504 1504 1504 1505 1505 1505 1504 1505 1506 1507 1508 1507 1507 1507 1507 1508 1508 1509 1509 1509 1509 1509 1510 1510 1511 1511 1511 1511 1511 1511
1487 1487 1487 1489 1491 1492 1494 1502 1508 1508 1505 1502 1501 1501 1499 1498 1501 1504 1505 1507 1508 1509 1508 1509 1508 1508 1509 1509 1510 1511 1511 1512 1512 1511 1511 1510 1509 1509 1508 1508 1508 1507 1507 1506 1505 1505 1504 1504 1503 1503 1503 1503 1502 1502 1502 1502 1502 1502 1502 1503 1503 1503 1503 1503 1504 1505 1505 1505 1505 1505 1506 1506 1506 1506 1507 1507 1507 1508 1508 1509 1509 1509 1509 1509 1509 1509
1492 1493 1494 1495 1496 1497 1499 1504 1507 1508 1506 1502 1500 1501 1502 1503 1506 1508 1508 1508 1509 1509 1509 1509 1509 1509 1509 1509 1510 1510 1510 1511 1511 1510 1510 1509 1509 1508 1507 1507 1506 1506 1505 1504 1504 1503 1502 1502 1502 1502 1502 1501 1501 1501 1500 1500 1500 1500 1500 1500 1500 1501 1501 1501 1502 1502 1502 1502 1503 1503 1503 1504 1504 1504 1504 1505 1505 1506 1506 1507 1507 1507 1507 1507 1507 1507
1493 1493 1496 1499 1499 1500 1504 1508 1510 1510 1508 1504 1502 1505 1507 1508 1509 1510 1509 1509 1510 1510 1510 1510 1509 1510 1509 1509 1509 1509 1509 1509 1509 1508 1508 1507 1507 1506 1505 1505 1504 1504 1503 1503 1502 1501 1501 1500 1500 1499 1499 1499 1499 1498 1498 1497 1497 1497 1497 1497 1498 1498 1498 1499 1499 1499 1499 1500 1500 1500 1501 1501 1502 1502 1502 1502 1503 1503 1504 1504 1505 1505 1505 1505 1505 1505
1496 1494 1495 1500 1503 1504 1506 1509 1510 1510 1509 1507 1506 1507 1509 1509 1510 1510 1510 1510 1510 1510 1510 1510 1510 1509 1509 1509 1508 1508 1508 1507 1507 1506 1506 1505 1504 1504 1503 1503 1502 1501 1501 1500 1500 1499 1499 1498 1497 1496 1496 1496 1497 1496 1496 1495 1494 1494 1494 1495 1495 1495 1496 1496 1496 1496 1497 1497 1497 1497 1498 1498 1499 1499 1499 1500 1500 1500 1501 1501 1502 1502 1502 1503 1503 1503
1498 1496 1496 1501 1505 1506 1507 1509 1510 1510 1510 1509 1508 1509 1509 1509 1510 1510 1509 1509 1509 1509 1509 1509 1509 1509 1509 1508 1507 1507 1507 1506 1505 1504 1504 1503 1503 1502 1501 1500 1500 1499 1498 1497 1497 1496 1495 1494 1494 1493 1492 1493 1493 1493 1493 1493 1492 1492 1492 1492 1492 1493 1493 1493 1493 1493 1494 1494 1494 1495 1495 1496 1496 1496 1497 1497 1497 1497 1498 1498 1499 1499 1500 1500 1500 1500
1498 1497 1498 1501 1505 1507 1509 1511 1510 1510 1510 1510 1509 1509 1509 1509 1509 1509 1509 1509 1509 1509 1509 1509 1508 1508 1507 1507 1506 1506 1505 1504 1503 1502 1502 1501 1500 1500 1499 1498 1497 1496 1495 1495 1494 1493 1492 1491 1491 1490 1489 1489 1489 1490 1490 1490 1490 1490 1490 1490 1490 1490 1490 1490 1491 1491 1491 1491 1492 1492 1493 1493 1494 1494 1494 1494 1494 1494 1494 1495 1495 1495 1496 1496 1497 1497
1499 1498 1500 1503 1505 1507 1509 1509 1509 1510 1510 1510 1509 1509 1509 1509 1509 1509 1508 1508 1508 1508 1508 1508 1507 1507 1506 1505 1505 1504 1503 1503 1502 1500 1499 1498 1498 1497 1496 1495 1494 1493 1492 1492 1491 1490 1489 1488 1488 1487 1486 1485 1485 1486 1486 1486 1486 1487 1487 1487 1487 1488 1488 1488 1488 1488 1488 1488 1489 1489 1489 1490 1490 1490 1490 1490 1490 1490 1490 1491 1491 1491 1491 1492 1493 1493
1500 1500 1502 1505 1507 1509 1509 1508 1509 1510 1510 1509 1509 1509 1508 1508 1508 1508 1508 1508 1508 1507 1507 1507 1506 1506 1505 1504 1503 1502 1501 1501 1499 1498 1497 1495 1494 1493 1492 1491 1490 1489 1489 1488 1488 1487 1486 1486 1484 1483 1483 1482 1482 1482 1482 1481 1482 1483 1483 1484 1484 1484 1484 1484 1485 1485 1485 1485 1486 1486 1486 1486 1487 1487 1487 1487 1487 1486 1486 1486 1486 1486 1487 1488 1488 1489
1500 1502 1504 1506 1508 1509 1508 1507 1508 1509 1509 1508 1508 1508 1508 1507 1507 1507 1507 1506 1506 1506 1505 1505 1504 1504 1503 1502 1501 1500 1499 1498 1497 1495 1494 1492 1491 1490 1489 1488 1487 1485 1485 1484 1484 1483 1483 1482 1481 1480 1479 1479 1479 1479 1478 1478 1478 1478 1479 1480 1480 1481 1481 1481 1481 1482 1482 1482 1482 1482 1483 1483 1483 1483 1483 1483 1482 1482 1482 1482 1482 1482 1482 1483 1484 1484
1501 1503 1504 1504 1506 1507 1506 1506 1507 1507 1507 1507 1507 1507 1507 1506 1506 1506 1505 1505 1504 1504 1503 1502 1502 1501 1500 1500 1499 1498 1496 1495 1494 1492 1490 1489 1488 1487 1485 1484 1483 1481 1481 1480 1479 1478 1478 1478 1478 1477 1475 1475 1475 1475 1475 1474 1474 1474 1475 1475 1476 1477 1477 1478 1478 1478 1478 1479 1479 1479 1479 1479 1479 1479 1478 1478 1478 1478 1478 1477 1477 1477 1477 1478 1479 1480